| time (UTC) | temp F | wind direction | speed knots | gust knots | rain 1hr in | rain 24hr in | rain mn in | humidity % | barometer mb |
| 20260906075519 | 85 | 62 | 0.0 | 1.7 | 0.00 | 0.00 | 0.00 | 37 | 1007.5 |
| 20260906075019 | 86 | 62 | 0.0 | 0.0 | 0.00 | 0.00 | 0.00 | 37 | 1007.5 |
| 20260906074519 | 86 | 62 | 0.0 | 0.0 | 0.00 | 0.00 | 0.00 | 39 | 1007.5 |
| 20260906074019 | 86 | 62 | 0.0 | 0.0 | 0.00 | 0.00 | 0.00 | 37 | 1007.5 |
| 20260906073518 | 86 | 62 | 0.0 | 0.0 | 0.00 | 0.00 | 0.00 | 37 | 1007.6 |
| 20260906073018 | 86 | 62 | 0.0 | 1.7 | 0.00 | 0.00 | 0.00 | 38 | 1007.6 |
| 20260906072516 | 86 | 62 | 0.0 | 2.6 | 0.00 | 0.00 | 0.00 | 37 | 1007.7 |
| 20260906072016 | 86 | 57 | 0.0 | 3.5 | 0.00 | 0.00 | 0.00 | 38 | 1007.7 |
| 20260906071514 | 85 | 29 | 0.0 | 3.5 | 0.00 | 0.00 | 0.00 | 40 | 1007.7 |
| 20260906071015 | 85 | 33 | 0.0 | 1.7 | 0.00 | 0.00 | 0.00 | 41 | 1007.8 |
| 20260906070512 | 85 | 5 | 0.0 | 0.0 | 0.00 | 0.00 | 0.00 | 42 | 1007.8 |
| 20260906070011 | 85 | 5 | 0.0 | 0.0 | 0.00 | 0.00 | 0.00 | 44 | 1007.9 |
| 20260906065511 | 85 | 5 | 0.0 | 0.0 | 0.00 | 0.00 | 0.00 | 45 | 1007.9 |
| 20260906065011 | 85 | 5 | 0.0 | 0.0 | 0.00 | 0.00 | 0.00 | 44 | 1007.9 |
| 20260906064511 | 85 | 5 | 0.0 | 0.0 | 0.00 | 0.00 | 0.00 | 43 | 1007.8 |
| 20260906064011 | 85 | 5 | 0.0 | 0.0 | 0.00 | 0.00 | 0.00 | 44 | 1007.8 |
| 20260906063510 | 85 | 5 | 0.0 | 0.0 | 0.00 | 0.00 | 0.00 | 39 | 1007.8 |
| 20260906063010 | 85 | 5 | 0.0 | 0.0 | 0.00 | 0.00 | 0.00 | 41 | 1007.8 |
| 20260906062509 | 85 | 5 | 0.0 | 0.0 | 0.00 | 0.00 | 0.00 | 42 | 1007.8 |
| 20260906062010 | 85 | 111 | 0.0 | 0.0 | 0.00 | 0.00 | 0.00 | 40 | 1007.8 |
| 20260906061510 | 85 | 111 | 0.0 | 1.7 | 0.00 | 0.00 | 0.00 | 41 | 1007.8 |
| 20260906061009 | 86 | 40 | 0.0 | 1.7 | 0.00 | 0.00 | 0.00 | 43 | 1007.8 |
| 20260906060511 | 86 | 257 | 0.0 | 0.0 | 0.00 | 0.00 | 0.00 | 45 | 1007.7 |
| 20260906060008 | 86 | 257 | 0.0 | 0.0 | 0.00 | 0.00 | 0.00 | 48 | 1007.7 |
| 20260906055510 | 87 | 257 | 0.0 | 0.0 | 0.00 | 0.00 | 0.00 | 44 | 1007.8 |
| 20260906055008 | 87 | 257 | 0.0 | 0.0 | 0.00 | 0.00 | 0.00 | 44 | 1007.8 |
| 20260906054509 | 87 | 257 | 0.0 | 0.0 | 0.00 | 0.00 | 0.00 | 40 | 1007.8 |
| 20260906054009 | 87 | 257 | 0.0 | 0.0 | 0.00 | 0.00 | 0.00 | 44 | 1007.8 |
| 20260906053512 | 87 | 257 | 0.0 | 0.0 | 0.00 | 0.00 | 0.00 | 39 | 1007.9 |
| 20260906053008 | 87 | 257 | 0.0 | 0.0 | 0.00 | 0.00 | 0.00 | 37 | 1007.9 |
| 20260906052508 | 87 | 257 | 0.0 | 0.0 | 0.00 | 0.00 | 0.00 | 36 | 1007.8 |
| 20260906052009 | 87 | 257 | 0.0 | 0.0 | 0.00 | 0.00 | 0.00 | 41 | 1007.8 |
| 20260906051507 | 87 | 257 | 0.0 | 0.0 | 0.00 | 0.00 | 0.00 | 40 | 1007.8 |
| 20260906051009 | 87 | 257 | 0.0 | 0.9 | 0.00 | 0.00 | 0.00 | 42 | 1007.8 |
| 20260906050509 | 87 | 257 | 0.0 | 1.7 | 0.00 | 0.00 | 0.00 | 40 | 1007.9 |
| 20260906050008 | 87 | 257 | 0.0 | 1.7 | 0.00 | 0.00 | 0.00 | 36 | 1007.9 |
| 20260906045510 | 87 | 257 | 0.0 | 0.0 | 0.00 | 0.00 | 0.00 | 36 | 1007.9 |
| 20260906045008 | 87 | 257 | 0.0 | 0.0 | 0.00 | 0.00 | 0.00 | 44 | 1007.9 |
| 20260906044507 | 87 | 257 | 0.0 | 0.0 | 0.00 | 0.00 | 0.00 | 44 | 1007.9 |
| 20260906044010 | 87 | 257 | 0.0 | 0.0 | 0.00 | 0.00 | 0.00 | 39 | 1007.9 |
| 20260906043506 | 88 | 257 | 0.0 | 1.7 | 0.00 | 0.00 | 0.00 | 41 | 1008.0 |
| 20260906043006 | 88 | 257 | 0.0 | 1.7 | 0.00 | 0.00 | 0.00 | 36 | 1007.9 |
| 20260906042505 | 88 | 257 | 0.0 | 1.7 | 0.00 | 0.00 | 0.00 | 43 | 1008.0 |
| 20260906042005 | 88 | 257 | 0.0 | 0.0 | 0.00 | 0.00 | 0.00 | 38 | 1008.0 |
| 20260906041506 | 88 | 257 | 0.0 | 0.0 | 0.00 | 0.00 | 0.00 | 35 | 1008.0 |
| 20260906041008 | 88 | 257 | 0.0 | 0.0 | 0.00 | 0.00 | 0.00 | 36 | 1008.1 |
| 20260906040505 | 88 | 257 | 0.0 | 0.0 | 0.00 | 0.00 | 0.00 | 35 | 1008.0 |
| 20260906040008 | 89 | 257 | 0.0 | 0.0 | 0.00 | 0.00 | 0.00 | 38 | 1008.1 |
| 20260906035507 | 89 | 257 | 0.0 | 0.0 | 0.00 | 0.00 | 0.00 | 39 | 1008.0 |
| 20260906035005 | 89 | 257 | 0.0 | 0.0 | 0.00 | 0.00 | 0.00 | 38 | 1008.0 |
| 20260906034505 | 89 | 257 | 0.0 | 0.0 | 0.00 | 0.00 | 0.00 | 36 | 1007.9 |
| 20260906034004 | 90 | 257 | 0.0 | 0.0 | 0.00 | 0.00 | 0.00 | 36 | 1007.8 |
| 20260906033505 | 90 | 257 | 0.0 | 0.0 | 0.00 | 0.00 | 0.00 | 38 | 1007.7 |
| 20260906033012 | 90 | 257 | 0.0 | 0.0 | 0.00 | 0.00 | 0.00 | 36 | 1007.7 |
| 20260906032503 | 90 | 257 | 0.0 | 0.0 | 0.00 | 0.00 | 0.00 | 37 | 1007.5 |
| 20260906032004 | 90 | 257 | 0.0 | 0.0 | 0.00 | 0.00 | 0.00 | 35 | 1007.5 |
| 20260906031503 | 91 | 257 | 0.0 | 0.0 | 0.00 | 0.00 | 0.00 | 35 | 1007.4 |
| 20260906031004 | 91 | 257 | 0.0 | 0.0 | 0.00 | 0.00 | 0.00 | 35 | 1007.4 |
| 20260906030504 | 91 | 257 | 0.0 | 1.7 | 0.00 | 0.00 | 0.00 | 33 | 1007.3 |
| 20260906030004 | 91 | 257 | 0.0 | 1.7 | 0.00 | 0.00 | 0.00 | 32 | 1007.3 |
| 20260906025503 | 91 | 257 | 0.0 | 0.0 | 0.00 | 0.00 | 0.00 | 33 | 1007.2 |
| 20260906025004 | 92 | 257 | 0.0 | 0.0 | 0.00 | 0.00 | 0.00 | 33 | 1007.2 |
| 20260906024502 | 92 | 257 | 0.0 | 0.0 | 0.00 | 0.00 | 0.00 | 33 | 1007.2 |
| 20260906024003 | 92 | 257 | 0.0 | 0.0 | 0.00 | 0.00 | 0.00 | 31 | 1007.1 |
| 20260906023504 | 92 | 257 | 0.0 | 1.7 | 0.00 | 0.00 | 0.00 | 31 | 1007.2 |
| 20260906023002 | 92 | 257 | 0.0 | 1.7 | 0.00 | 0.00 | 0.00 | 30 | 1007.1 |
| 20260906022505 | 92 | 302 | 0.0 | 1.7 | 0.00 | 0.00 | 0.00 | 30 | 1007.1 |
| 20260906022003 | 92 | 302 | 0.0 | 1.7 | 0.00 | 0.00 | 0.00 | 29 | 1007.1 |
| 20260906021502 | 93 | 275 | 0.0 | 3.5 | 0.00 | 0.00 | 0.00 | 29 | 1007.2 |
| 20260906021001 | 93 | 293 | 1.7 | 3.5 | 0.00 | 0.00 | 0.00 | 29 | 1007.2 |
| 20260906020602 | 93 | 304 | 0.9 | 4.3 | 0.00 | 0.00 | 0.00 | 29 | 1007.2 |
| 20260906020107 | 93 | 311 | 1.7 | 4.3 | 0.00 | 0.00 | 0.00 | 29 | 1007.3 |
| 20260906015601 | 93 | 315 | 1.7 | 4.3 | 0.00 | 0.00 | 0.00 | 29 | 1007.3 |
| 20260906015059 | 93 | 304 | 2.6 | 7.0 | 0.00 | 0.00 | 0.00 | 29 | 1007.3 |
| 20260906014602 | 93 | 329 | 1.7 | 7.0 | 0.00 | 0.00 | 0.00 | 29 | 1007.4 |
| 20260906014059 | 93 | 311 | 0.9 | 4.3 | 0.00 | 0.00 | 0.00 | 29 | 1007.4 |
| 20260906013601 | 94 | 331 | 1.7 | 4.3 | 0.00 | 0.00 | 0.00 | 29 | 1007.4 |
| 20260906013109 | 94 | 284 | 1.7 | 7.0 | 0.00 | 0.00 | 0.00 | 29 | 1007.5 |
| 20260906012559 | 94 | 286 | 3.5 | 7.8 | 0.00 | 0.00 | 0.00 | 29 | 1007.5 |
| 20260906012058 | 94 | 297 | 5.2 | 7.8 | 0.00 | 0.00 | 0.00 | 28 | 1007.6 |
| 20260906011606 | 94 | 294 | 3.5 | 7.8 | 0.00 | 0.00 | 0.00 | 28 | 1007.5 |
| 20260906011058 | 94 | 261 | 4.3 | 9.6 | 0.00 | 0.00 | 0.00 | 28 | 1007.4 |
| 20260906010557 | 94 | 310 | 6.1 | 9.6 | 0.00 | 0.00 | 0.00 | 28 | 1007.5 |
| 20260906010059 | 95 | 302 | 4.3 | 7.8 | 0.00 | 0.00 | 0.00 | 28 | 1007.5 |
| 20260906005557 | 95 | 301 | 4.3 | 7.8 | 0.00 | 0.00 | 0.00 | 28 | 1007.5 |
| 20260906005057 | 95 | 265 | 2.6 | 7.8 | 0.00 | 0.00 | 0.00 | 28 | 1007.4 |
| 20260906004604 | 95 | 292 | 3.5 | 7.0 | 0.00 | 0.00 | 0.00 | 27 | 1007.4 |
| 20260906004057 | 95 | 293 | 2.6 | 6.1 | 0.00 | 0.00 | 0.00 | 27 | 1007.3 |
| 20260906003558 | 95 | 321 | 1.7 | 7.8 | 0.00 | 0.00 | 0.00 | 27 | 1007.4 |
| 20260906003103 | 95 | 338 | 2.6 | 7.8 | 0.00 | 0.00 | 0.00 | 28 | 1007.4 |
| 20260906002556 | 96 | 296 | 2.6 | 8.7 | 0.00 | 0.00 | 0.00 | 27 | 1007.3 |
| 20260906002056 | 96 | 322 | 4.3 | 8.7 | 0.00 | 0.00 | 0.00 | 27 | 1007.4 |
| 20260906001556 | 96 | 301 | 1.7 | 7.0 | 0.00 | 0.00 | 0.00 | 27 | 1007.3 |
| 20260906001057 | 96 | 343 | 3.5 | 10.4 | 0.00 | 0.00 | 0.00 | 26 | 1007.3 |
| 20260906000555 | 97 | 319 | 5.2 | 10.4 | 0.00 | 0.00 | 0.00 | 26 | 1007.3 |
| 20260906000058 | 97 | 292 | 1.7 | 10.4 | 0.00 | 0.00 | 0.00 | 27 | 1007.4 |
| 20260905235556 | 97 | 276 | 5.2 | 10.4 | 0.00 | 0.00 | 0.00 | 26 | 1007.5 |
| 20260905235056 | 98 | 270 | 4.3 | 8.7 | 0.00 | 0.00 | 0.00 | 26 | 1007.4 |
| 20260905234556 | 98 | 324 | 5.2 | 8.7 | 0.00 | 0.00 | 0.00 | 26 | 1007.4 |
| 20260905234056 | 98 | 313 | 1.7 | 7.8 | 0.00 | 0.00 | 0.00 | 26 | 1007.3 |
| 20260905233556 | 98 | 281 | 2.6 | 8.7 | 0.00 | 0.00 | 0.00 | 25 | 1007.3 |
| 20260905233054 | 98 | 289 | 5.2 | 8.7 | 0.00 | 0.00 | 0.00 | 25 | 1007.3 |
| 20260905232554 | 98 | 301 | 5.2 | 8.7 | 0.00 | 0.00 | 0.00 | 25 | 1007.3 |
| 20260905232054 | 98 | 290 | 2.6 | 8.7 | 0.00 | 0.00 | 0.00 | 25 | 1007.3 |
| 20260905231554 | 98 | 281 | 3.5 | 9.6 | 0.00 | 0.00 | 0.00 | 25 | 1007.3 |
| 20260905231053 | 99 | 274 | 4.3 | 9.6 | 0.00 | 0.00 | 0.00 | 24 | 1007.3 |
| 20260905230553 | 99 | 304 | 0.9 | 6.1 | 0.00 | 0.00 | 0.00 | 24 | 1007.4 |
| 20260905230054 | 99 | 300 | 2.6 | 7.8 | 0.00 | 0.00 | 0.00 | 24 | 1007.4 |
| 20260905225553 | 100 | 294 | 4.3 | 8.7 | 0.00 | 0.00 | 0.00 | 23 | 1007.4 |
| 20260905225052 | 100 | 257 | 1.7 | 8.7 | 0.00 | 0.00 | 0.00 | 23 | 1007.4 |
| 20260905224555 | 101 | 261 | 5.2 | 8.7 | 0.00 | 0.00 | 0.00 | 23 | 1007.5 |
| 20260905224052 | 101 | 309 | 1.7 | 7.0 | 0.00 | 0.00 | 0.00 | 23 | 1007.4 |
| 20260905223553 | 101 | 281 | 1.7 | 7.0 | 0.00 | 0.00 | 0.00 | 23 | 1007.4 |
| 20260905223051 | 100 | 286 | 0.9 | 7.0 | 0.00 | 0.00 | 0.00 | 23 | 1007.5 |
| 20260905222549 | 100 | 323 | 3.5 | 6.1 | 0.00 | 0.00 | 0.00 | 23 | 1007.5 |
| 20260905222049 | 101 | 250 | 0.9 | 5.2 | 0.00 | 0.00 | 0.00 | 23 | 1007.6 |
| 20260905221549 | 100 | 319 | 0.9 | 6.1 | 0.00 | 0.00 | 0.00 | 23 | 1007.7 |
| 20260905221049 | 100 | 196 | 1.7 | 7.8 | 0.00 | 0.00 | 0.00 | 23 | 1007.8 |
| 20260905220549 | 99 | 183 | 2.6 | 7.8 | 0.00 | 0.00 | 0.00 | 25 | 1007.9 |
| 20260905220049 | 99 | 231 | 2.6 | 7.0 | 0.00 | 0.00 | 0.00 | 24 | 1008.0 |
| 20260905215548 | 98 | 246 | 2.6 | 6.1 | 0.00 | 0.00 | 0.00 | 25 | 1008.1 |
| 20260905215048 | 98 | 255 | 0.9 | 7.0 | 0.00 | 0.00 | 0.00 | 24 | 1008.1 |
| 20260905214548 | 98 | 321 | 3.5 | 7.0 | 0.00 | 0.00 | 0.00 | 24 | 1008.2 |
| 20260905214048 | 98 | 266 | 2.6 | 7.0 | 0.00 | 0.00 | 0.00 | 25 | 1008.2 |
| 20260905213547 | 98 | 329 | 0.0 | 3.5 | 0.00 | 0.00 | 0.00 | 25 | 1008.3 |
| 20260905213048 | 98 | 242 | 0.0 | 6.1 | 0.00 | 0.00 | 0.00 | 24 | 1008.3 |
| 20260905212548 | 98 | 269 | 0.9 | 6.1 | 0.00 | 0.00 | 0.00 | 24 | 1008.4 |
| 20260905212048 | 98 | 274 | 0.9 | 6.1 | 0.00 | 0.00 | 0.00 | 24 | 1008.5 |
| 20260905211552 | 98 | 284 | 0.9 | 3.5 | 0.00 | 0.00 | 0.00 | 24 | 1008.5 |
| 20260905211047 | 97 | 242 | 0.0 | 5.2 | 0.00 | 0.00 | 0.00 | 24 | 1008.7 |
| 20260905210548 | 97 | 297 | 1.7 | 7.0 | 0.00 | 0.00 | 0.00 | 24 | 1008.7 |
| 20260905210050 | 98 | 281 | 3.5 | 7.0 | 0.00 | 0.00 | 0.00 | 24 | 1008.7 |
| 20260905205546 | 98 | 329 | 3.5 | 7.0 | 0.00 | 0.00 | 0.00 | 24 | 1008.8 |
| 20260905205047 | 99 | 263 | 3.5 | 7.0 | 0.00 | 0.00 | 0.00 | 23 | 1008.8 |
| 20260905204548 | 99 | 285 | 0.0 | 4.3 | 0.00 | 0.00 | 0.00 | 23 | 1008.8 |
| 20260905204046 | 100 | 307 | 0.9 | 4.3 | 0.00 | 0.00 | 0.00 | 23 | 1008.8 |
| 20260905203546 | 100 | 232 | 0.9 | 4.3 | 0.00 | 0.00 | 0.00 | 23 | 1008.9 |
| 20260905203046 | 99 | 231 | 0.9 | 6.1 | 0.00 | 0.00 | 0.00 | 23 | 1009.0 |
| 20260905202545 | 99 | 265 | 3.5 | 6.1 | 0.00 | 0.00 | 0.00 | 23 | 1009.0 |
| 20260905202046 | 99 | 174 | 0.9 | 7.0 | 0.00 | 0.00 | 0.00 | 23 | 1009.1 |
| 20260905201546 | 99 | 216 | 0.9 | 7.0 | 0.00 | 0.00 | 0.00 | 23 | 1009.1 |
| 20260905201045 | 100 | 196 | 2.6 | 6.1 | 0.00 | 0.00 | 0.00 | 23 | 1009.1 |
| 20260905200545 | 100 | 289 | 0.9 | 7.0 | 0.00 | 0.00 | 0.00 | 23 | 1009.1 |
| 20260905200044 | 100 | 197 | 1.7 | 7.8 | 0.00 | 0.00 | 0.00 | 23 | 1009.3 |
| 20260905195545 | 100 | 164 | 1.7 | 7.8 | 0.00 | 0.00 | 0.00 | 22 | 1009.2 |
| 20260905195045 | 101 | 233 | 0.0 | 4.3 | 0.00 | 0.00 | 0.00 | 23 | 1009.4 |
| 20260905194545 | 101 | 159 | 0.9 | 3.5 | 0.00 | 0.00 | 0.00 | 22 | 1009.4 |
| 20260905194044 | 101 | 138 | 0.9 | 3.5 | 0.00 | 0.00 | 0.00 | 23 | 1009.4 |
| 20260905193545 | 101 | 184 | 0.9 | 4.3 | 0.00 | 0.00 | 0.00 | 23 | 1009.5 |
| 20260905193043 | 101 | 201 | 1.7 | 4.3 | 0.00 | 0.00 | 0.00 | 23 | 1009.5 |
| 20260905192543 | 101 | 200 | 0.9 | 4.3 | 0.00 | 0.00 | 0.00 | 23 | 1009.5 |
| 20260905192046 | 101 | 188 | 0.9 | 4.3 | 0.00 | 0.00 | 0.00 | 23 | 1009.6 |
| 20260905191542 | 101 | 155 | 0.0 | 2.6 | 0.00 | 0.00 | 0.00 | 22 | 1009.8 |
| 20260905191042 | 101 | 123 | 0.9 | 4.3 | 0.00 | 0.00 | 0.00 | 22 | 1009.8 |
| 20260905190543 | 100 | 144 | 0.9 | 4.3 | 0.00 | 0.00 | 0.00 | 22 | 1009.9 |
| 20260905190040 | 100 | 207 | 0.0 | 3.5 | 0.00 | 0.00 | 0.00 | 23 | 1010.0 |
| 20260905185541 | 100 | 185 | 0.9 | 2.6 | 0.00 | 0.00 | 0.00 | 23 | 1010.1 |
| 20260905185040 | 100 | 338 | 0.9 | 3.5 | 0.00 | 0.00 | 0.00 | 23 | 1010.2 |
| 20260905184554 | 100 | 170 | 0.9 | 3.5 | 0.00 | 0.00 | 0.00 | 24 | 1010.2 |
| 20260905184038 | 100 | 143 | 0.9 | 3.5 | 0.00 | 0.00 | 0.00 | 23 | 1010.3 |
| 20260905183537 | 99 | 227 | 0.0 | 6.1 | 0.00 | 0.00 | 0.00 | 24 | 1010.3 |
| 20260905183045 | 99 | 151 | 0.9 | 6.1 | 0.00 | 0.00 | 0.00 | 24 | 1010.4 |
| 20260905182534 | 98 | 141 | 1.7 | 4.3 | 0.00 | 0.00 | 0.00 | 24 | 1010.4 |
| 20260905182034 | 98 | 221 | 1.7 | 4.3 | 0.00 | 0.00 | 0.00 | 24 | 1010.5 |
| 20260905181540 | 98 | 197 | 1.7 | 4.3 | 0.00 | 0.00 | 0.00 | 25 | 1010.5 |
| 20260905181031 | 98 | 200 | 0.0 | 3.5 | 0.00 | 0.00 | 0.00 | 27 | 1010.5 |
| 20260905180531 | 97 | 203 | 0.9 | 4.3 | 0.00 | 0.00 | 0.00 | 26 | 1010.5 |
| 20260905180035 | 97 | 125 | 0.9 | 5.2 | 0.00 | 0.00 | 0.00 | 26 | 1010.6 |
| 20260905175530 | 97 | 171 | 1.7 | 6.1 | 0.00 | 0.00 | 0.00 | 25 | 1010.6 |
| 20260905175029 | 97 | 119 | 1.7 | 6.1 | 0.00 | 0.00 | 0.00 | 25 | 1010.6 |
| 20260905174529 | 97 | 169 | 1.7 | 5.2 | 0.00 | 0.00 | 0.00 | 25 | 1010.6 |
| 20260905174028 | 97 | 193 | 1.7 | 5.2 | 0.00 | 0.00 | 0.00 | 25 | 1010.6 |
| 20260905173527 | 97 | 124 | 0.9 | 4.3 | 0.00 | 0.00 | 0.00 | 27 | 1010.5 |
| 20260905173028 | 96 | 135 | 0.9 | 3.5 | 0.00 | 0.00 | 0.00 | 26 | 1010.5 |
| 20260905172525 | 96 | 171 | 0.9 | 4.3 | 0.00 | 0.00 | 0.00 | 26 | 1010.5 |
| 20260905172025 | 96 | 266 | 0.9 | 4.3 | 0.00 | 0.00 | 0.00 | 26 | 1010.4 |
| 20260905171525 | 96 | 190 | 0.9 | 3.5 | 0.00 | 0.00 | 0.00 | 27 | 1010.4 |
| 20260905171027 | 96 | 140 | 0.9 | 3.5 | 0.00 | 0.00 | 0.00 | 27 | 1010.4 |
| 20260905170522 | 96 | 238 | 0.0 | 3.5 | 0.00 | 0.00 | 0.00 | 28 | 1010.4 |
| 20260905170021 | 95 | 172 | 0.9 | 3.5 | 0.00 | 0.00 | 0.00 | 28 | 1010.4 |
| 20260905165519 | 95 | 176 | 0.9 | 2.6 | 0.00 | 0.00 | 0.00 | 29 | 1010.4 |
| 20260905165018 | 95 | 159 | 0.0 | 4.3 | 0.00 | 0.00 | 0.00 | 28 | 1010.4 |
| 20260905164517 | 95 | 157 | 0.9 | 4.3 | 0.00 | 0.00 | 0.00 | 29 | 1010.3 |
| 20260905164017 | 94 | 161 | 0.9 | 3.5 | 0.00 | 0.00 | 0.00 | 29 | 1010.3 |
| 20260905163515 | 94 | 158 | 0.9 | 3.5 | 0.00 | 0.00 | 0.00 | 30 | 1010.3 |
| 20260905163013 | 93 | 184 | 0.0 | 1.7 | 0.00 | 0.00 | 0.00 | 30 | 1010.3 |
| 20260905162511 | 93 | 153 | 0.0 | 1.7 | 0.00 | 0.00 | 0.00 | 32 | 1010.3 |
| 20260905162010 | 93 | 293 | 0.9 | 1.7 | 0.00 | 0.00 | 0.00 | 32 | 1010.3 |
| 20260905161509 | 92 | 188 | 0.0 | 1.7 | 0.00 | 0.00 | 0.00 | 32 | 1010.2 |
| 20260905161008 | 92 | 173 | 0.0 | 1.7 | 0.00 | 0.00 | 0.00 | 32 | 1010.2 |
| 20260905160506 | 91 | 250 | 0.0 | 1.7 | 0.00 | 0.00 | 0.00 | 34 | 1010.3 |
| 20260905160005 | 90 | 161 | 0.0 | 1.7 | 0.00 | 0.00 | 0.00 | 35 | 1010.3 |
| 20260905155504 | 89 | 153 | 0.0 | 0.0 | 0.00 | 0.00 | 0.00 | 36 | 1010.3 |
| 20260905155003 | 88 | 68 | 0.0 | 0.0 | 0.00 | 0.00 | 0.00 | 37 | 1010.2 |
| 20260905154502 | 87 | 68 | 0.0 | 0.0 | 0.00 | 0.00 | 0.00 | 37 | 1010.3 |
| 20260905154002 | 87 | 54 | 0.0 | 0.0 | 0.00 | 0.00 | 0.00 | 39 | 1010.2 |
| 20260905153601 | 86 | 329 | 0.0 | 0.0 | 0.00 | 0.00 | 0.00 | 39 | 1010.2 |
| 20260905153109 | 86 | 329 | 0.0 | 0.0 | 0.00 | 0.00 | 0.00 | 41 | 1010.1 |
| 20260905152559 | 85 | 306 | 0.0 | 0.0 | 0.00 | 0.00 | 0.00 | 42 | 1010.0 |
| 20260905152101 | 85 | 306 | 0.0 | 0.0 | 0.00 | 0.00 | 0.00 | 41 | 1010.0 |
| 20260905151600 | 85 | 305 | 0.0 | 0.0 | 0.00 | 0.00 | 0.00 | 42 | 1010.0 |
| 20260905151056 | 85 | 305 | 0.0 | 0.0 | 0.00 | 0.00 | 0.00 | 44 | 1010.0 |
| 20260905150556 | 85 | 305 | 0.0 | 0.0 | 0.00 | 0.00 | 0.00 | 43 | 1010.1 |
| 20260905150056 | 85 | 136 | 0.0 | 0.0 | 0.00 | 0.00 | 0.00 | 44 | 1010.1 |
| 20260905145555 | 85 | 136 | 0.0 | 0.0 | 0.00 | 0.00 | 0.00 | 46 | 1010.1 |
| 20260905145055 | 84 | 136 | 0.0 | 0.0 | 0.00 | 0.00 | 0.00 | 49 | 1010.1 |
| 20260905144554 | 84 | 136 | 0.0 | 0.0 | 0.00 | 0.00 | 0.00 | 43 | 1010.0 |
| 20260905144053 | 84 | 136 | 0.0 | 0.0 | 0.00 | 0.00 | 0.00 | 44 | 1009.9 |
| 20260905143553 | 83 | 136 | 0.0 | 0.0 | 0.00 | 0.00 | 0.00 | 45 | 1009.8 |
| 20260905143052 | 83 | 136 | 0.0 | 0.0 | 0.00 | 0.00 | 0.00 | 47 | 1009.9 |
| 20260905142550 | 83 | 136 | 0.0 | 0.0 | 0.00 | 0.00 | 0.00 | 48 | 1009.8 |
| 20260905142056 | 83 | 136 | 0.0 | 0.0 | 0.00 | 0.00 | 0.00 | 51 | 1009.7 |
| 20260905141549 | 82 | 136 | 0.0 | 0.0 | 0.00 | 0.00 | 0.00 | 51 | 1009.6 |
| 20260905141052 | 82 | 136 | 0.0 | 0.0 | 0.00 | 0.00 | 0.00 | 46 | 1009.6 |
| 20260905140547 | 82 | 136 | 0.0 | 0.0 | 0.00 | 0.00 | 0.00 | 45 | 1009.6 |
| 20260905140048 | 82 | 136 | 0.0 | 0.0 | 0.00 | 0.00 | 0.00 | 47 | 1009.6 |
| 20260905135546 | 82 | 136 | 0.0 | 0.0 | 0.00 | 0.00 | 0.00 | 45 | 1009.5 |
| 20260905135045 | 82 | 136 | 0.0 | 0.0 | 0.00 | 0.00 | 0.00 | 45 | 1009.4 |
| 20260905134546 | 81 | 55 | 0.0 | 0.0 | 0.00 | 0.00 | 0.00 | 45 | 1009.4 |
| 20260905134047 | 81 | 55 | 0.0 | 0.0 | 0.00 | 0.00 | 0.00 | 45 | 1009.3 |
| 20260905133543 | 81 | 55 | 0.0 | 0.0 | 0.00 | 0.00 | 0.00 | 46 | 1009.2 |
| 20260905133048 | 81 | 55 | 0.0 | 0.0 | 0.00 | 0.00 | 0.00 | 46 | 1009.1 |
| 20260905132541 | 81 | 55 | 0.0 | 0.0 | 0.00 | 0.00 | 0.00 | 46 | 1009.0 |
| 20260905132040 | 81 | 55 | 0.0 | 0.0 | 0.00 | 0.00 | 0.00 | 45 | 1008.9 |
| 20260905131543 | 81 | 55 | 0.0 | 0.0 | 0.00 | 0.00 | 0.00 | 43 | 1008.9 |
| 20260905131041 | 81 | 22 | 0.0 | 0.0 | 0.00 | 0.00 | 0.00 | 43 | 1008.9 |
| 20260905130536 | 81 | 22 | 0.0 | 0.0 | 0.00 | 0.00 | 0.00 | 45 | 1008.8 |
| 20260905130041 | 81 | 22 | 0.0 | 0.0 | 0.00 | 0.00 | 0.00 | 42 | 1008.7 |
| 20260905125535 | 81 | 22 | 0.0 | 0.0 | 0.00 | 0.00 | 0.00 | 42 | 1008.7 |
| 20260905125036 | 81 | 22 | 0.0 | 0.0 | 0.00 | 0.00 | 0.00 | 44 | 1008.7 |
| 20260905124535 | 82 | 234 | 0.0 | 0.0 | 0.00 | 0.00 | 0.00 | 44 | 1008.7 |
| 20260905124034 | 82 | 234 | 0.0 | 0.0 | 0.00 | 0.00 | 0.00 | 41 | 1008.6 |
| 20260905123531 | 82 | 235 | 0.0 | 0.0 | 0.00 | 0.00 | 0.00 | 43 | 1008.6 |
| 20260905123030 | 82 | 234 | 0.0 | 0.0 | 0.00 | 0.00 | 0.00 | 42 | 1008.5 |
| 20260905122530 | 82 | 235 | 0.0 | 0.0 | 0.00 | 0.00 | 0.00 | 42 | 1008.4 |
| 20260905122029 | 82 | 234 | 0.0 | 0.0 | 0.00 | 0.00 | 0.00 | 44 | 1008.5 |
| 20260905121529 | 82 | 235 | 0.0 | 0.0 | 0.00 | 0.00 | 0.00 | 41 | 1008.5 |
| 20260905121028 | 83 | 234 | 0.0 | 0.0 | 0.00 | 0.00 | 0.00 | 42 | 1008.4 |
| 20260905120528 | 83 | 234 | 0.0 | 0.0 | 0.00 | 0.00 | 0.00 | 41 | 1008.3 |
| 20260905120027 | 83 | 234 | 0.0 | 1.7 | 0.00 | 0.00 | 0.00 | 41 | 1008.4 |
| 20260905115525 | 83 | 234 | 0.0 | 1.7 | 0.00 | 0.00 | 0.00 | 42 | 1008.3 |
| 20260905115027 | 83 | 148 | 0.0 | 1.7 | 0.00 | 0.00 | 0.00 | 43 | 1008.3 |
| 20260905114525 | 84 | 148 | 0.0 | 1.7 | 0.00 | 0.00 | 0.00 | 40 | 1008.3 |
| 20260905114023 | 84 | 105 | 0.0 | 1.7 | 0.00 | 0.00 | 0.00 | 39 | 1008.2 |
| 20260905113523 | 84 | 88 | 0.0 | 1.7 | 0.00 | 0.00 | 0.00 | 39 | 1008.2 |
| 20260905113022 | 84 | 80 | 0.9 | 1.7 | 0.00 | 0.00 | 0.00 | 39 | 1008.2 |
| 20260905112521 | 85 | 77 | 0.0 | 1.7 | 0.00 | 0.00 | 0.00 | 38 | 1008.3 |
| 20260905112021 | 85 | 306 | 0.0 | 1.7 | 0.00 | 0.00 | 0.00 | 37 | 1008.2 |
| 20260905111530 | 86 | 306 | 0.0 | 1.7 | 0.00 | 0.00 | 0.00 | 37 | 1008.1 |
| 20260905111019 | 86 | 306 | 0.0 | 1.7 | 0.00 | 0.00 | 0.00 | 36 | 1008.1 |
| 20260905110518 | 86 | 306 | 0.0 | 1.7 | 0.00 | 0.00 | 0.00 | 36 | 1008.1 |
| 20260905110032 | 86 | 306 | 0.0 | 2.6 | 0.00 | 0.00 | 0.00 | 36 | 1008.1 |
| 20260905105517 | 86 | 313 | 0.0 | 2.6 | 0.00 | 0.00 | 0.00 | 37 | 1008.1 |
| 20260905105017 | 86 | 298 | 0.9 | 2.6 | 0.00 | 0.00 | 0.00 | 36 | 1008.1 |
| 20260905104516 | 86 | 257 | 0.0 | 1.7 | 0.00 | 0.00 | 0.00 | 36 | 1008.1 |
| 20260905104015 | 86 | 307 | 0.0 | 1.7 | 0.00 | 0.00 | 0.00 | 36 | 1008.1 |
| 20260905103517 | 87 | 309 | 0.0 | 1.7 | 0.00 | 0.00 | 0.00 | 36 | 1008.0 |
| 20260905103014 | 87 | 238 | 0.0 | 1.7 | 0.00 | 0.00 | 0.00 | 35 | 1008.0 |
| 20260905102518 | 87 | 238 | 0.0 | 1.7 | 0.00 | 0.00 | 0.00 | 35 | 1007.9 |
| 20260905102014 | 87 | 238 | 0.0 | 1.7 | 0.00 | 0.00 | 0.00 | 35 | 1007.9 |
| 20260905101514 | 87 | 256 | 0.0 | 1.7 | 0.00 | 0.00 | 0.00 | 35 | 1007.9 |
| 20260905101013 | 88 | 250 | 0.0 | 2.6 | 0.00 | 0.00 | 0.00 | 35 | 1007.8 |
| 20260905100514 | 88 | 286 | 0.0 | 2.6 | 0.00 | 0.00 | 0.00 | 35 | 1007.7 |
| 20260905100014 | 88 | 294 | 0.9 | 5.2 | 0.00 | 0.00 | 0.00 | 35 | 1007.7 |
| 20260905095516 | 88 | 263 | 1.7 | 6.1 | 0.00 | 0.00 | 0.00 | 34 | 1007.7 |
| 20260905095016 | 88 | 246 | 2.6 | 6.1 | 0.00 | 0.00 | 0.00 | 35 | 1007.7 |
| 20260905094514 | 88 | 288 | 1.7 | 7.8 | 0.00 | 0.00 | 0.00 | 35 | 1007.7 |
| 20260905094012 | 88 | 259 | 3.5 | 8.7 | 0.00 | 0.00 | 0.00 | 35 | 1007.7 |
| 20260905093513 | 88 | 261 | 4.3 | 13.0 | 0.00 | 0.00 | 0.00 | 35 | 1007.7 |
| 20260905093015 | 88 | 266 | 5.2 | 13.0 | 0.00 | 0.00 | 0.00 | 35 | 1007.7 |
| 20260905092511 | 88 | 295 | 4.3 | 9.6 | 0.00 | 0.00 | 0.00 | 35 | 1007.8 |
| 20260905092011 | 88 | 322 | 6.1 | 9.6 | 0.00 | 0.00 | 0.00 | 36 | 1007.8 |
| 20260905091514 | 88 | 303 | 3.5 | 7.0 | 0.00 | 0.00 | 0.00 | 35 | 1007.8 |
| 20260905091010 | 88 | 275 | 1.7 | 6.1 | 0.00 | 0.00 | 0.00 | 36 | 1007.9 |
| 20260905090510 | 88 | 317 | 2.6 | 7.0 | 0.00 | 0.00 | 0.00 | 36 | 1007.9 |
| 20260905090016 | 88 | 304 | 2.6 | 7.0 | 0.00 | 0.00 | 0.00 | 36 | 1007.9 |
| 20260905085510 | 88 | 259 | 2.6 | 6.1 | 0.00 | 0.00 | 0.00 | 36 | 1007.9 |
| 20260905085010 | 88 | 299 | 2.6 | 6.1 | 0.00 | 0.00 | 0.00 | 36 | 1007.9 |
| 20260905084510 | 88 | 315 | 2.6 | 6.1 | 0.00 | 0.00 | 0.00 | 36 | 1007.9 |
| 20260905084008 | 88 | 289 | 2.6 | 6.1 | 0.00 | 0.00 | 0.00 | 36 | 1008.0 |
| 20260905083508 | 88 | 239 | 3.5 | 7.8 | 0.00 | 0.00 | 0.00 | 36 | 1008.0 |
| 20260905083008 | 88 | 269 | 4.3 | 7.0 | 0.00 | 0.00 | 0.00 | 36 | 1008.1 |
| 20260905082506 | 88 | 287 | 1.7 | 6.1 | 0.00 | 0.00 | 0.00 | 36 | 1008.1 |
| 20260905082011 | 88 | 296 | 2.6 | 7.0 | 0.00 | 0.00 | 0.00 | 36 | 1008.1 |
| 20260905081506 | 88 | 314 | 1.7 | 5.2 | 0.00 | 0.00 | 0.00 | 36 | 1008.1 |
| 20260905081007 | 88 | 276 | 1.7 | 3.5 | 0.00 | 0.00 | 0.00 | 36 | 1008.2 |
| 20260905080505 | 88 | 262 | 0.0 | 3.5 | 0.00 | 0.00 | 0.00 | 35 | 1008.2 |
| 20260905080005 | 88 | 259 | 0.9 | 4.3 | 0.00 | 0.00 | 0.00 | 36 | 1008.2 |